Location: Taupo
(38.6830°S, 176.0830°E)
Time: 10:35:30
(UTC+13:00)

SL-08 R/B - Pass Details

Date: 24 January 2019
Orbit: 946 x 994 km, 83.0° (Epoch: 17 February)

Event Time Altitude Azimuth Distance (km) Brightness Sun altitude
Exits shadow 22:39:26 19° 353° (N) 2,073 5.9 -20.0°
Maximum altitude 22:43:55 86° 266° (W) 967 4.4 -20.5°
Drops below altitude 10° 22:50:10 10° 174° (S) 2,721 7.4 -21.3°
Sets 22:52:42 0° 173° (S) 3,680 8.2 -21.7°
